Location: Courçay
(47.2523°N, 0.8761°E)
Time: 01:43:09
(UTC+00:00)

Meteor 1-28 Rocket - Pass Details

Date: 18 November 2025
Orbit: 434 x 442 km, 97.6° (Epoch: 04 December)

Event Time Altitude Azimuth Distance (km) Brightness Sun altitude
Rises 16:59:42 0° 11° (N) 2,459 6.3 -7.3°
Reaches altitude 10° 17:01:44 10° 9° (N) 1,583 5.4 -7.6°
Maximum altitude 17:05:07 72° 285° (WNW) 475 3.2 -8.2°
Drops below altitude 10° 17:08:28 10° 201° (SSW) 1,570 6.2 -8.7°
Sets 17:10:29 0° 199° (SSW) 2,436 7.2 -9.0°
